[[{"header":{"parameterUnit":"m.s-1","parameterCategory":1,"la1":30.2991,"la2":30.254,"lo1":-89.0895,"lo2":-89.0444,"dy":0.0017,"dx":0.0017,"nx":28,"ny":28,"refTime":"2025-01-03T03:00:00:Z","depth":0,"parameterNumber":2,"parameterNumberName":"U-component_of_WINDS"},"data":[0,0,0,0,0,0,0,0,0,0,0,0,0,0,0,0,0,0,0,0,0,0,0,0,0,0,0,0,0,0,0,0,0,0,0,0,0,0,0,0,0,0,0,0,0,0,0,0,0,0,0,0,0,0,0,0,0,0,-2.0432,-2.0432,0,-2.0405,-2.0405,-2.0404,-2.0295,-2.0292,-2.029,-2.0287,-2.0264,-2.0266,-2.0267,0,0,0,0,0,0,0,0,0,0,0,0,0,-2.0393,-2.0395,-2.0432,-2.0431,-2.0431,-2.0405,-2.0405,-2.0404,-2.0295,-2.0292,-2.0289,-2.0286,-2.0263,-2.0265,-2.0267,0,0,0,0,0,0,0,0,0,0,0,0,0,-2.0393,-2.0395,-2.0432,-2.0373,-2.0368,-2.0405,-2.0405,-2.0404,-2.0296,-2.0292,-2.0288,-2.0285,-2.0263,-2.0265,-2.0268,-2.036,0,0,-2.0276,-2.0277,0,0,0,0,0,0,0,0,-2.0393,-2.0394,-2.0382,-2.0378,-2.0371,-2.0349,-2.0382,-2.039,-2.0297,-2.0323,-2.0287,-2.0283,-2.0296,-2.0295,-2.0299,-2.0359,-2.0358,-2.0276,-2.0278,-2.0279,-2.0279,0,0,0,0,0,0,0,-2.0393,-2.0395,-2.0421,-2.0382,-2.0376,-2.035,-2.0346,-2.0383,-2.0331,-2.0321,-2.0313,-2.0311,-2.0292,-2.0296,-2.0297,-2.0358,-2.0276,-2.0278,-2.028,-2.0281,-2.0495,-2.0499,0,0,0,0,0,0,-2.0401,-2.0396,-2.0422,-2.042,-2.0373,-2.0354,-2.0349,-2.036,-2.0331,-2.0322,-2.0314,-2.0306,-2.0294,-2.0294,-2.0296,-2.0404,-2.0279,-2.0281,-2.0283,-2.0491,-2.0496,-2.0501,0,0,0,0,0,0,-2.04,-2.0404,-2.0423,-2.0406,-2.0406,-2.0359,-2.0372,-2.0362,-2.0366,-2.0325,-2.0316,-2.0328,-2.0291,-2.0292,-2.0345,-2.0402,-2.0282,-2.0285,-2.0486,-2.0493,-2.0499,-2.0621,0,0,0,0,0,0,-2.04,-2.0405,-2.0438,-2.0407,-2.0408,-2.0472,-2.0375,-2.0364,-2.037,-2.0359,-2.0336,-2.0329,-2.0288,-2.0342,-2.0348,-2.0403,-2.0287,-2.0481,-2.0489,-2.0497,-2.0612,-2.063,-2.0647,0,0,0,0,0,-2.0399,-2.0474,-2.044,-2.0444,-2.0448,-2.0475,-2.0476,-2.0426,-2.0375,-2.041,-2.0384,-2.0329,-2.0394,-2.0348,-2.0354,-2.0411,-2.0477,-2.0487,-2.0496,-2.0604,-2.0627,-2.0646,0,0,0,0,0,0,-2.0514,-2.0469,-2.0431,-2.0498,-2.0492,-2.0457,-2.0498,-2.0452,-2.046,-2.0449,-2.0389,-2.0385,-2.0447,-2.0434,-2.0383,-2.05,-2.0427,-2.0438,-2.0507,-2.0528,-2.0546,-2.0548,-2.0289,0,0,0,0,0,-2.0547,-2.0571,-2.0531,-2.0594,-2.0593,-2.0547,-2.0556,-2.0519,-2.051,-2.0507,-2.0484,-2.0479,-2.0498,-2.0512,-2.0527,-2.0609,-2.0603,-2.0651,-2.0668,-2.0683,-2.0694,-2.0738,-2.076,-2.0531,-2.0531,-2.0531,0,0,-2.0616,-2.0594,-2.0613,-2.0617,-2.0607,-2.0636,-2.0545,-2.0578,-2.0599,-2.0512,-2.0561,-2.0545,-2.0535,-2.0603,-2.0632,-2.0594,-2.0756,-2.0695,-2.0707,-2.071,-2.075,-2.0772,-2.0791,-2.0538,-2.0536,-2.0535,0,0,-2.0756,-2.0741,-2.0793,-2.0785,-2.0771,-2.074,-2.0753,-2.0726,-2.0711,-2.0759,-2.0695,-2.072,-2.0753,-2.075,-2.0752,-2.0893,-2.0844,-2.0899,-2.0992,-2.1036,-2.1054,-2.107,-2.1122,-2.1141,-2.091,-2.091,-2.091,0,-2.0844,-2.0883,-2.0826,-2.0864,-2.0869,-2.079,-2.0844,-2.0839,-2.0832,-2.0838,-2.0795,-2.0837,-2.0824,-2.0892,-2.0926,-2.093,-2.0945,-2.0903,-2.1055,-2.1071,-2.1085,-2.1134,-2.1154,-2.0917,-2.0916,-2.0916,-2.0915,0,-2.0993,-2.1021,-2.1065,-2.1059,-2.1068,-2.1114,-2.1066,-2.1083,-2.1045,-2.1019,-2.107,-2.1052,-2.1064,-2.1076,-2.104,-2.114,-2.1117,-2.1066,-2.0991,-2.1114,-2.116,-2.1178,-2.0927,-2.0925,-2.0923,-2.0921,0,0,-2.1205,-2.1168,-2.1185,-2.1183,-2.1162,-2.1183,-2.1226,-2.1236,-2.1253,-2.1251,-2.1287,-2.1318,-2.1271,-2.1274,-2.1236,-2.1275,-2.139,-2.1219,-2.1218,-2.1254,-2.1502,-2.1543,-2.1565,-2.1357,-2.136,-2.1363,-2.1504,0,-2.1341,-2.1411,-2.1363,-2.1442,-2.1469,-2.1395,-2.1432,-2.1425,-2.1402,-2.1423,-2.1398,-2.1422,-2.1357,-2.1358,-2.1393,-2.1369,-2.144,-2.1358,-2.1393,-2.1395,-2.14,-2.1589,-2.1631,-2.1765,-2.1521,-2.1524,-2.1526,0,-2.1508,-2.1513,-2.1595,-2.1571,-2.158,-2.1615,-2.1621,-2.1641,-2.1632,-2.1613,-2.1617,-2.157,-2.1613,-2.1538,-2.1597,-2.1543,-2.1554,-2.1545,-2.1549,-2.1552,-2.147,-2.16,-2.1806,-2.1827,-2.1553,-2.1551,-2.1549,0,-2.1659,-2.1685,-2.1738,-2.1738,-2.171,-2.1737,-2.1727,-2.1713,-2.1723,-2.1729,-2.1736,-2.1747,-2.1754,-2.1765,-2.1723,-2.1672,-2.1789,-2.171,-2.1777,-2.1778,-2.1806,-2.1806,-2.202,-2.181,-2.181,-2.181,-2.1809,0,-2.1816,-2.187,-2.1806,-2.1839,-2.1897,-2.1841,-2.1902,-2.1884,-2.1873,-2.1903,-2.1839,-2.1869,-2.181,-2.1835,-2.1802,-2.1858,-2.1861,-2.1849,-2.184,-2.1856,-2.1858,-2.1864,-2.1855,-2.1815,-2.1814,-2.1813,-2.1812,0,-2.1995,-2.1953,-2.2006,-2.1976,-2.1969,-2.2014,-2.1989,-2.2019,-2.1992,-2.2031,-2.2037,-2.1995,-2.202,-2.1979,-2.2,-2.1978,-2.2056,-2.2032,-2.206,-2.2053,-2.2123,-2.2119,-2.2351,-2.238,-2.215,-2.2152,-2.2154,0,-2.2099,-2.2139,-2.2112,-2.2127,-2.212,-2.2145,-2.2155,-2.2102,-2.2115,-2.2108,-2.214,-2.216,-2.2173,-2.2218,-2.2191,-2.2207,-2.2184,-2.2265,-2.2187,-2.2202,-2.2189,-2.2188,-2.2193,-2.2282,-2.2285,-2.2287,-2.2289,0,-2.229,-2.2268,-2.2283,-2.2293,-2.2306,-2.2311,-2.2312,-2.2328,-2.2272,-2.2291,-2.2316,-2.2326,-2.2347,-2.2369,-2.2379,-2.237,-2.2322,-2.2313,-2.233,-2.2348,-2.2363,-2.2359,-2.2106,-2.2309,-2.2307,-2.2305,-2.2304,-2.2303,-2.2436,-2.2468,-2.2455,-2.2476,-2.2471,-2.2473,-2.2501,-2.2477,-2.2496,-2.2509,-2.2477,-2.251,-2.2502,-2.251,-2.2507,-2.2533,-2.2498,-2.2522,-2.2528,-2.2536,-2.2548,-2.2357,-2.2534,-2.2534,-2.2533,-2.2533,-2.2532,0,-2.2625,-2.2613,-2.2633,-2.2636,-2.2653,-2.2603,-2.2602,-2.262,-2.265,-2.2645,-2.266,-2.269,-2.2711,-2.2686,-2.2703,-2.2729,-2.2708,-2.2736,-2.2734,-2.2734,-2.2577,-2.2562,-2.2753,-2.2753,-2.2753,-2.2753,-2.2753,-2.2753,-2.2726,-2.278,-2.2756,-2.2807,-2.2795,-2.2827,-2.283,-2.2833,-2.283,-2.2866,-2.2883,-2.2865,-2.2854,-2.2869,-2.2888,-2.288,-2.289,-2.2927,-2.2912,-2.2766,-2.2745,-2.2724,-2.271,-2.2929,-2.2929,-2.3067,-2.3068,-2.3069]},{"header":{"parameterUnit":"m.s-1","parameterCategory":1,"la1":30.2991,"la2":30.254,"lo1":-89.0895,"lo2":-89.0444,"dy":0.0017,"dx":0.0017,"nx":28,"ny":28,"refTime":"2025-01-03T03:00:00:Z","depth":0,"parameterNumber":3,"parameterNumberName":"V-component_of_WINDS"},"data":[0,0,0,0,0,0,0,0,0,0,0,0,0,0,0,0,0,0,0,0,0,0,0,0,0,0,0,0,0,0,0,0,0,0,0,0,0,0,0,0,0,0,0,0,0,0,0,0,0,0,0,0,0,0,0,0,0,0,0.0112,0.0111,0,0.0055,0.0055,0.0054,0.0046,0.0047,0.0047,0.0048,-0.0013,-0.0015,-0.0017,0,0,0,0,0,0,0,0,0,0,0,0,0,0.0211,0.0209,0.0112,0.0111,0.011,0.0055,0.0055,0.0054,0.0046,0.0047,0.0047,0.0048,-0.0012,-0.0014,-0.0017,0,0,0,0,0,0,0,0,0,0,0,0,0,0.0162,0.0208,0.0112,0.01,0.0098,0.0056,0.0055,0.0054,0.0046,0.0047,0.0048,0.0048,-0.0011,-0.0014,-0.0017,-0.0053,0,0,-0.0027,-0.0028,0,0,0,0,0,0,0,0,0.0165,0.0159,0.0102,0.0101,0.0099,0.0059,0.0067,0.0018,0.0046,0.0066,0.0048,0.0049,0.001,0.0005,-0.0007,-0.0056,-0.0058,-0.0027,-0.0029,-0.0031,-0.0031,0,0,0,0,0,0,0,0.0168,0.0161,0.0089,0.0102,0.0099,0.0097,0.0091,0.0058,0.0034,0.0064,0.0063,0.0057,0.0009,-0.0004,-0.0009,-0.0059,-0.0027,-0.003,-0.0032,-0.0033,-0.014,-0.0141,0,0,0,0,0,0,0.0174,0.0164,0.0091,0.0088,0.0135,0.0094,0.0088,0.0071,0.0034,0.003,0.0056,0.0057,0.0001,-0.0005,-0.0011,-0.0055,-0.0031,-0.0034,-0.0035,-0.0139,-0.014,-0.0141,0,0,0,0,0,0,0.0176,0.0168,0.0093,0.0126,0.0116,0.0092,0.0073,0.0069,0.0056,0.0029,0.0024,0.0047,0.0001,-0.0006,-0.0042,-0.0057,-0.0035,-0.0038,-0.0138,-0.0139,-0.0141,-0.0144,0,0,0,0,0,0,0.0179,0.0169,0.0155,0.0125,0.0114,0.0063,0.0072,0.0067,0.0051,0.0051,0.0019,0.0014,0.0001,-0.0037,-0.0045,-0.0061,-0.004,-0.0137,-0.0139,-0.014,-0.0143,-0.0145,-0.0148,0,0,0,0,0,0.0183,0.0156,0.0155,0.0146,0.0097,0.0063,0.0056,0.0043,0.005,0.0035,0.0018,0.0015,-0.0054,-0.0041,-0.005,-0.0067,-0.0136,-0.0138,-0.014,-0.0142,-0.0145,-0.0148,0,0,0,0,0,0,0.0183,0.0152,0.015,0.0113,0.0091,0.0061,0.0043,0.004,0.0014,0.0015,-0.0001,-0.0008,-0.0043,-0.0059,-0.0044,-0.0103,-0.0094,-0.0098,-0.0093,-0.0096,-0.0098,-0.0095,-0.0043,0,0,0,0,0,0.018,0.0155,0.0128,0.0098,0.0087,0.0067,0.0052,0.0043,0.0019,0.001,-0.001,-0.0034,-0.0061,-0.0079,-0.0106,-0.0144,-0.0152,-0.0161,-0.0163,-0.0165,-0.0169,-0.0191,-0.0195,-0.0148,-0.0148,-0.0148,0,0,0.017,0.015,0.0135,0.0098,0.0079,0.0053,0.0059,0.0031,0.0012,0.0005,-0.003,-0.0045,-0.0073,-0.0111,-0.0128,-0.0124,-0.0183,-0.0168,-0.0169,-0.0172,-0.0193,-0.0198,-0.0202,-0.015,-0.0149,-0.0149,0,0,0.014,0.0123,0.0096,0.0078,0.0051,0.0038,0.0032,0.0003,-0.0007,-0.0042,-0.0048,-0.0071,-0.0118,-0.0137,-0.0153,-0.0189,-0.0193,-0.0197,-0.0211,-0.0232,-0.0236,-0.0239,-0.0253,-0.0258,-0.02,-0.02,-0.02,0,0.0132,0.0094,0.0082,0.0055,0.0038,0.0032,0.0004,-0.0013,-0.0048,-0.0059,-0.0054,-0.0112,-0.0131,-0.0174,-0.0182,-0.0194,-0.0203,-0.0195,-0.0234,-0.0238,-0.0241,-0.0255,-0.026,-0.0201,-0.0201,-0.0201,-0.0201,0,0.0084,0.0058,0.0039,0.0007,-0.0012,-0.004,-0.0056,-0.0073,-0.0079,-0.0093,-0.0129,-0.0151,-0.0183,-0.0193,-0.0199,-0.0236,-0.0233,-0.0231,-0.0222,-0.0246,-0.0259,-0.0264,-0.0202,-0.0201,-0.0201,-0.0201,0,0,0.0051,0.0014,0.0007,-0.0008,-0.0037,-0.0058,-0.0086,-0.0115,-0.0131,-0.0154,-0.0178,-0.0216,-0.0214,-0.0232,-0.0241,-0.0259,-0.0287,-0.0255,-0.0256,-0.0261,-0.033,-0.0333,-0.0339,-0.0289,-0.029,-0.0291,-0.0328,0,0.0017,-0.0032,-0.0043,-0.0086,-0.0111,-0.0116,-0.014,-0.0161,-0.0174,-0.0198,-0.0212,-0.024,-0.0234,-0.0245,-0.0263,-0.028,-0.0302,-0.0277,-0.0314,-0.0315,-0.0308,-0.0345,-0.0349,-0.0383,-0.0333,-0.0334,-0.0335,0,-0.0031,-0.0054,-0.0099,-0.0125,-0.0136,-0.0157,-0.0185,-0.0207,-0.0231,-0.0239,-0.0259,-0.0265,-0.0295,-0.0283,-0.0325,-0.0308,-0.0323,-0.0333,-0.0335,-0.0341,-0.0328,-0.0353,-0.0394,-0.04,-0.0343,-0.0342,-0.0342,0,-0.0052,-0.0094,-0.0127,-0.0139,-0.017,-0.0185,-0.0199,-0.0222,-0.0238,-0.0263,-0.0274,-0.0301,-0.0317,-0.0338,-0.0352,-0.0342,-0.0393,-0.0382,-0.0402,-0.0402,-0.0414,-0.0414,-0.046,-0.0421,-0.0421,-0.0421,-0.0421,0,-0.009,-0.0118,-0.0137,-0.0157,-0.0188,-0.02,-0.0231,-0.0244,-0.0265,-0.0288,-0.0293,-0.0316,-0.0332,-0.0356,-0.0367,-0.04,-0.0407,-0.0415,-0.0418,-0.0416,-0.0415,-0.0427,-0.0426,-0.0422,-0.0422,-0.0422,-0.0421,0,-0.0121,-0.0134,-0.017,-0.0195,-0.0202,-0.0224,-0.0247,-0.0267,-0.0279,-0.0308,-0.0316,-0.0335,-0.0364,-0.038,-0.0416,-0.0423,-0.0461,-0.0462,-0.0453,-0.0455,-0.0474,-0.0472,-0.0531,-0.054,-0.0493,-0.0494,-0.0494,0,-0.0145,-0.0166,-0.0194,-0.0209,-0.0223,-0.0248,-0.0265,-0.0277,-0.0294,-0.0323,-0.0339,-0.0368,-0.0392,-0.0438,-0.0456,-0.0484,-0.0487,-0.0505,-0.0491,-0.0488,-0.0489,-0.0488,-0.0491,-0.0508,-0.0509,-0.0509,-0.0509,0,-0.0188,-0.0193,-0.0217,-0.0243,-0.0262,-0.0284,-0.0305,-0.0317,-0.0333,-0.0352,-0.0381,-0.0399,-0.0436,-0.0465,-0.0494,-0.0508,-0.0512,-0.0513,-0.0519,-0.0518,-0.0513,-0.0517,-0.0462,-0.0512,-0.0512,-0.0512,-0.0512,-0.0511,-0.0217,-0.0236,-0.0258,-0.0285,-0.0301,-0.032,-0.0341,-0.0355,-0.0379,-0.0409,-0.0414,-0.0445,-0.0468,-0.0507,-0.0522,-0.0547,-0.0544,-0.0552,-0.0555,-0.0557,-0.0559,-0.0507,-0.0552,-0.0552,-0.0552,-0.0552,-0.0552,0,-0.0261,-0.0275,-0.0299,-0.0328,-0.0348,-0.0348,-0.0371,-0.0388,-0.0415,-0.0436,-0.0459,-0.0492,-0.052,-0.0539,-0.0568,-0.0584,-0.0586,-0.0591,-0.0591,-0.0595,-0.056,-0.0552,-0.0589,-0.0589,-0.0589,-0.0589,-0.0589,-0.0589,-0.0287,-0.032,-0.0327,-0.0368,-0.0382,-0.0412,-0.0425,-0.0443,-0.046,-0.0496,-0.0519,-0.0531,-0.0551,-0.0581,-0.0606,-0.0611,-0.0622,-0.0628,-0.0633,-0.0601,-0.0597,-0.0593,-0.0586,-0.0629,-0.0629,-0.0666,-0.0666,-0.0666]}]]